Weather in Tartus

Syria     34°52′37″N   35°53′46″E
temp.,
°C
wind,
m/s
gust,
m/s
humid.,
%
clouds,
%
prec.,
mm/h
press.,
hPa
HPBL,
m
14 april, wed
wed1400:00+8ene22720 0.0 102212
03:00+8ene22720 0.0 102111
06:00+8e22570 0.0 102113
09:00+14nne01425 0.0 1021398
12:00+17wnw32435 0.0 1020915
15:00+18nw43520 0.0 1019707
18:00+15nnw33680 0.0 1019282
21:00+11ne22762 0.0 102013
15 april, thu
thu1500:00+12ene22615 0.0 101911
03:00+12ne224778 0.0 101813
06:00+12ene224857 0.0 101812
09:00+18nnw01405 0.0 1018273
12:00+21wnw21404 0.0 1018629
15:00+21nw33450 0.0 1017467
18:00+18nnw23620 0.0 101788
21:00+15ne22535 0.0 101712
16 april, fri
fri1600:00+15ne224042 0.0 101711
03:00+15ne2235100 0.0 101611
06:00+15e2236100 0.0 101513
09:00+22nne1237100 0.0 1016200
12:00+25w123572 0.0 1016847
15:00+24nw3342100 0.0 1015568
18:00+20nnw3365100 0.0 101572
21:00+18ene2254100 0.0 101611
17 april, sat
sat1700:00+17ne21406 0.0 101612
03:00+17ne224521 0.0 101516
06:00+17ene32485 0.0 101517
09:00+23ne124247 0.0 1015242
12:00+26w2137100 0.0 1015729
15:00+26nw224152 0.0 1014554
18:00+23nnw126125 0.0 101550
21:00+20nne115759 0.0 101611
18 april, sun
sun1800:00+19e2249100 0.0 101612
03:00+20ene3242100 0.0 101515
06:00+19ene33386 0.0 101519
09:00+26nne224055 0.0 1015197
12:00+31sw222767 0.0 1015885
15:00+28nw343683 0.0 1016358
18:00+25n2248100 0.0 101518
21:00+23ene2236100 0.0 101511